Location: Ponte Samoggia
(44.5667°N, 11.1333°E)
Time: 22:48:04
(UTC+00:00)

Cosmos 1455 Rocket - Pass Details

Date: 26 May 2022
Orbit: 604 x 629 km, 82.5° (Epoch: 26 June)

Event Time Altitude Azimuth Distance (km) Brightness Sun altitude
Rises 00:18:18 0° 355° (N) 2,930 7.7 -22.6°
Reaches altitude 10° 00:20:36 10° 360° (N) 2,017 6.7 -22.5°
Maximum altitude 00:25:00 55° 79° (ENE) 756 3.6 -22.3°
Enters shadow 00:26:12 41° 130° (SE) 912 3.7 -22.2°
